Location: Bacharowice
(49.9333°N, 19.5833°E)
Time: 12:11:43
(UTC+00:00)

Cosmos 1300 Rocket - Pass Details

Date: 11 May 2021
Orbit: 601 x 627 km, 82.5° (Epoch: 22 June)

Event Time Altitude Azimuth Distance (km) Brightness Sun altitude
Rises 23:14:28 0° 347° (NNW) 2,916 8.2 -21.5°
Reaches altitude 10° 23:16:44 10° 344° (NNW) 2,000 7.1 -21.4°
Maximum altitude 23:21:07 63° 264° (W) 693 3.6 -21.3°
Enters shadow 23:21:40 57° 225° (SW) 733 3.6 -21.3°
